COSMOS 1275 DEB, 39966

Orbit data source: Space-Track

COSMOS 1275 DEB, 39966 is space debris in LEO originally from a launch on Thu, 04 Jun 1981 UTC launched from the Plesetsk Missile And Space Complex (PKMTR). Debris objects in space refer to the collection of defunct objects orbiting the Earth. Examples of debris include non-operational satellites, rocket bodies, and fragments generated from explosions, collisions, or faulty payload assembly.

Loading next visibility...
Identifier
39966, 1981-053PC
Orbit
LEO
Country
Flag of CISCIS
Related business
Manufacturer
Unknown
Mission
Spacecraft
Bus & Motor
Unknown
Mass
Unknown
Launch date (UTC)
1981-06-04 (45 years ago)
Launch vehicle
Unknown
Launch site
Plesetsk Missile And Space Complex (PKMTR)
Object type
Payload
Rocket body
Debris
Shape & HBR
Unknown shape, 0.1 m
Radar Cross Section
Small (<0.1 m²)

Expand to show TLE details & history
Last TLE update: 1 day ago

TLE from 1 day ago
0 COSMOS 1275 DEB
1 39966U 81053PC  26036.16610432  .00002168  00000-0  13718-2 0  9999
2 39966  82.7057 105.1618 0038574  41.7774 348.4065 14.03251329594618
Epoch: 2026-02-05T03:59Z
TLE epoch observation values (Epoch: 2026-02-05T03:59:11.413Z)
Latitude
29.87674°
Longitude
-85.76322°
Altitude
858.875 km
Speed
7.44 km/s
True Right ascension
07h 17m 25s
True Declination
29° 43' 50"
Sunlit
Object was in full shadow at epoch
Visualization orbit readout
Latitude
Unknown
Longitude
Unknown
Altitude
Unknown
Speed
Unknown
Apparent Right ascension
Unknown
Apparent Declination
Unknown
Sunlit
N/A
Visualization observer readout
Local Sidereal Time
18:04:22
Azimuth
Unknown
Elevation
Unknown
Doppler factor
Unknown
Orbital elements
Apogee altitude
907.673 km
Perigee altitude
851.681 km
Semi-major axis
7,257.814 km
Eccentricity
0.00386
Inclination
82.7057°
RAAN
105.1618°
Arg. of periapsis
41.7774°
True anomaly
348.31725°
Mean anomaly
348.4065°
Eccentric anomaly
348.36192°
Mean motion
3.51022 °/min
Orbital period
102.56 mins
BSTAR
0.0013718
Loading maneuver chart data...
Computing Atmospheric mass density...
Loading historical data...
Loading historical data...
Loading historical data...
Loading historical data...
Loading historical data...
Loading historical data...
Loading historical data...

Documentation

Showing up to 5 results
|